Weather History for Knox, IN

Change the Weather History Date:

Saturday, May 11, 2013

  Actual Average (KVPZ) Record (KVPZ)
Temperature  
Mean Temperature 48 °F 58 °F  
Max Temperature 82 °F 69 °F 89 °F (2011)
Min Temperature 38 °F 46 °F 39 °F (2006)
Degree Days  
Heating Degree Days 16 8  
Month to date heating degree days 104  
Since 1 July heating degree days 6163  
Cooling Degree Days 0 1  
Month to date cooling degree days 7  
Year to date cooling degree days 12  
Moisture  
Dew Point 42 °F    
Average Humidity 86    
Maximum Humidity 99    
Minimum Humidity 63    
Precipitation  
Precipitation 0.00 in 0.13 in 1.53 in (2002)
Month to date precipitation 1.42  
Year to date precipitation 10.60  
Sea Level Pressure  
Sea Level Pressure 29.93 in    
Wind  
Wind Speed 9 mph (WNW)    
Max Wind Speed 34 mph    
Max Gust Speed 41 mph    
Visibility 8 miles    
Events      
T = Trace of Precipitation, MM = Missing Value Source: NWS Daily Summary

Daily Weather History Graph

Daily Weather History Graph

Search for Another Location

Airport:

Trip Planner

Search our weather history database for the weather conditions in past years. The results will help you decide how hot, cold, wet, or windy it might be!

Date:

Astronomy

May. 11, 2013 Rise Set
Actual Time 5:31 AM CDT 7:54 PM CDT
Civil Twilight 5:00 AM CDT 8:26 PM CDT
Nautical Twilight 4:22 AM CDT 9:04 PM CDT
Astronomical Twilight 3:39 AM CDT 9:47 PM CDT
Moon 6:38 AM CDT (5/11) 9:35 PM CDT (5/11)
Length of Visible Light 15h 25m
Length of Day
14h 23m
Waxing Crescent, 3% of the Moon is Illuminated
May 11
Waxing Crescent
May 17
First Quarter
May 24
Full
May 31
Last Quarter
Jun 8
New

Hourly Weather History & Observations

Time (CDT) Temp. Windchill Dew Point Humidity Pressure Visibility Wind Dir Wind Speed Gust Speed Precip Events Conditions
12:15 AM 41.9 °F 37.5 °F 41.5 °F 99% 29.93 in 2.0 mi NW 6.9 mph - N/A   Overcast
12:35 AM 41.9 °F 36.3 °F 41.7 °F 99% 29.93 in 2.0 mi NNW 9.2 mph - N/A   Overcast
12:55 AM 42.1 °F 37.1 °F 41.9 °F 99% 29.94 in 4.0 mi NNW 8.1 mph - N/A   Overcast
1:15 AM 42.1 °F 36.6 °F 41.9 °F 99% 29.94 in 3.0 mi NW 9.2 mph - N/A   Overcast
1:35 AM 42.1 °F 37.1 °F 41.9 °F 99% 29.94 in 2.5 mi NW 8.1 mph - N/A   Overcast
1:55 AM 42.1 °F 36.6 °F 41.9 °F 99% 29.94 in 2.5 mi NW 9.2 mph - N/A   Overcast
2:15 AM 42.1 °F 36.6 °F 41.9 °F 99% 29.94 in 2.5 mi NW 9.2 mph - N/A   Overcast
2:35 AM 42.1 °F 38.4 °F 41.9 °F 99% 29.95 in 4.0 mi WNW 5.8 mph - N/A   Overcast
2:55 AM 42.1 °F 37.7 °F 41.9 °F 99% 29.95 in 4.0 mi WNW 6.9 mph - N/A   Overcast
3:15 AM 42.3 °F 39.4 °F 42.1 °F 99% 29.95 in 4.0 mi WNW 4.6 mph - N/A   Overcast
3:35 AM 42.4 °F 37.5 °F 42.1 °F 99% 29.95 in 4.0 mi WNW 8.1 mph - N/A   Overcast
3:55 AM 42.4 °F 38.8 °F 42.1 °F 99% 29.95 in 3.0 mi WNW 5.8 mph - N/A   Overcast
4:15 AM 42.8 °F 40.1 °F 42.4 °F 99% 29.95 in 4.0 mi West 4.6 mph - N/A   Overcast
4:35 AM 43.0 °F 38.8 °F 42.8 °F 99% 29.94 in 4.0 mi WNW 6.9 mph - N/A   Overcast
4:55 AM 43.2 °F 40.5 °F 42.8 °F 99% 29.94 in 4.0 mi West 4.6 mph - N/A   Overcast
5:35 AM 43.7 °F 41.1 °F 43.3 °F 99% 29.93 in 5.0 mi West 4.6 mph - N/A   Overcast
5:55 AM 43.5 °F 38.9 °F 43.2 °F 99% 29.93 in 7.0 mi West 8.1 mph - N/A   Overcast
6:15 AM 43.3 °F 39.2 °F 43.0 °F 99% 29.93 in 10.0 mi West 6.9 mph - N/A   Overcast
6:35 AM 43.5 °F 40.1 °F 42.8 °F 97% 29.93 in 10.0 mi WNW 5.8 mph - N/A   Overcast
6:55 AM 43.3 °F 38.6 °F 42.6 °F 97% 29.93 in 10.0 mi WNW 8.1 mph - N/A   Overcast
7:15 AM 43.3 °F 38.1 °F 42.6 °F 97% 29.93 in 10.0 mi WNW 9.2 mph - N/A   Overcast
7:35 AM 43.3 °F 39.9 °F 42.6 °F 97% 29.92 in 5.0 mi WNW 5.8 mph - N/A   Overcast
7:55 AM 43.9 °F 41.3 °F 43.0 °F 97% 29.92 in 5.0 mi WNW 4.6 mph - N/A   Overcast
8:15 AM 44.4 °F 42.0 °F 43.3 °F 96% 29.91 in 4.0 mi WNW 4.6 mph - N/A   Overcast
8:35 AM 45.0 °F - 43.9 °F 96% 29.91 in 5.0 mi Calm Calm - N/A   Overcast
8:55 AM 45.9 °F 42.9 °F 44.6 °F 95% 29.91 in 5.0 mi SW 5.8 mph - N/A   Overcast
9:15 AM 46.6 °F - 45.1 °F 95% 29.92 in 5.0 mi West 5.8 mph - N/A   Overcast
9:35 AM 47.3 °F - 45.7 °F 94% 29.90 in 5.0 mi West 6.9 mph - N/A   Overcast
9:55 AM 48.2 °F - 46.2 °F 93% 29.90 in 5.0 mi WSW 9.2 mph - N/A   Overcast
10:15 AM 48.7 °F - 46.4 °F 92% 29.91 in 5.0 mi SW 9.2 mph - N/A   Overcast
10:35 AM 49.5 °F - 46.6 °F 90% 29.90 in 7.0 mi SW 10.4 mph - N/A   Overcast
11:15 AM 51.4 °F - 47.8 °F 87% 29.88 in 7.0 mi SSW 11.5 mph - N/A   Overcast
11:35 AM 52.0 °F - 48.0 °F 86% 29.87 in 7.0 mi SSW 11.5 mph - N/A   Overcast
11:55 AM 52.9 °F - 48.4 °F 85% 29.86 in 10.0 mi SW 10.4 mph - N/A   Mostly Cloudy
12:15 PM 55.0 °F - 49.8 °F 83% 29.85 in 10.0 mi SSW 12.7 mph 16.1 mph N/A   Mostly Cloudy
12:35 PM 55.6 °F - 49.8 °F 81% 29.85 in 10.0 mi SW 12.7 mph - N/A   Overcast
12:55 PM 55.0 °F - 49.5 °F 81% 29.85 in 10.0 mi WSW 10.4 mph - N/A   Overcast
1:15 PM 54.7 °F - 49.8 °F 84% 29.85 in 10.0 mi SW 13.8 mph - N/A   Overcast
1:35 PM 54.5 °F - 50.2 °F 85% 29.85 in 10.0 mi SW 13.8 mph 17.3 mph N/A   Overcast
1:55 PM 55.2 °F - 50.9 °F 85% 29.85 in 10.0 mi WSW 10.4 mph - N/A   Overcast
2:35 PM 59.5 °F - 52.9 °F 79% 29.83 in 10.0 mi WSW 15.0 mph - N/A   Mostly Cloudy
2:55 PM 56.3 °F - 50.0 °F 79% 29.87 in 3.0 mi NNW 34.5 mph 41.4 mph N/A   Overcast
3:15 PM 49.8 °F - 44.4 °F 82% 29.88 in 10.0 mi NNW 32.2 mph 36.8 mph N/A   Mostly Cloudy
3:35 PM 50.9 °F - 44.4 °F 78% 29.88 in 10.0 mi North 29.9 mph 35.7 mph N/A   Scattered Clouds
3:55 PM 49.8 °F - 42.3 °F 75% 29.89 in 10.0 mi North 23.0 mph 32.2 mph N/A   Scattered Clouds
4:15 PM 48.7 °F - 40.6 °F 74% 29.90 in 10.0 mi North 19.6 mph 25.3 mph N/A   Mostly Cloudy
4:35 PM 50.7 °F - 41.4 °F 70% 29.90 in 10.0 mi North 20.7 mph 26.5 mph N/A   Scattered Clouds
4:55 PM 51.1 °F - 41.2 °F 69% 29.91 in 10.0 mi North 17.3 mph 25.3 mph N/A   Clear
5:15 PM 51.1 °F - 40.3 °F 67% 29.91 in 10.0 mi North 17.3 mph 23.0 mph N/A   Scattered Clouds
5:35 PM 50.9 °F - 39.6 °F 65% 29.92 in 10.0 mi NNW 19.6 mph - N/A   Mostly Cloudy
5:55 PM 50.0 °F - 38.7 °F 65% 29.93 in 10.0 mi North 19.6 mph - N/A   Mostly Cloudy
6:15 PM 48.7 °F - 37.9 °F 66% 29.94 in 10.0 mi North 13.8 mph - N/A   Mostly Cloudy
6:35 PM 48.0 °F - 37.2 °F 66% 29.94 in 10.0 mi North 16.1 mph - N/A   Overcast
6:55 PM 47.7 °F - 35.4 °F 63% 29.95 in 10.0 mi North 10.4 mph - N/A   Overcast
7:15 PM 47.3 °F - 35.6 °F 64% 29.96 in 10.0 mi NNW 9.2 mph - N/A   Overcast
7:35 PM 47.3 °F - 36.3 °F 66% 29.97 in 10.0 mi NNW 10.4 mph - N/A   Overcast
7:55 PM 46.8 °F - 34.9 °F 63% 29.98 in 10.0 mi NNW 15.0 mph 20.7 mph N/A   Overcast
8:15 PM 45.1 °F 40.3 °F 34.2 °F 65% 29.98 in 10.0 mi NNW 9.2 mph - N/A   Mostly Cloudy
8:35 PM 43.2 °F 40.5 °F 34.9 °F 73% 29.99 in 10.0 mi NW 4.6 mph - N/A   Clear
8:55 PM 43.0 °F 41.3 °F 35.4 °F 75% 29.99 in 10.0 mi WNW 3.5 mph - N/A   Clear
9:15 PM 42.8 °F 41.1 °F 35.4 °F 75% 29.99 in 10.0 mi WNW 3.5 mph - N/A   Clear
9:35 PM 42.1 °F 39.2 °F 35.6 °F 78% 30.00 in 10.0 mi West 4.6 mph - N/A   Clear
9:55 PM 41.0 °F 39.0 °F 36.1 °F 83% 30.01 in 10.0 mi WNW 3.5 mph - N/A   Scattered Clouds
10:15 PM 40.5 °F - 36.7 °F 86% 30.01 in 10.0 mi Calm Calm - N/A   Scattered Clouds
10:35 PM 40.1 °F 36.9 °F 37.0 °F 89% 30.01 in 10.0 mi West 4.6 mph - N/A   Clear
10:55 PM 39.9 °F - 36.3 °F 87% 30.01 in 10.0 mi Calm Calm - N/A   Clear
11:15 PM 38.7 °F 35.2 °F 35.8 °F 89% 30.01 in 10.0 mi West 4.6 mph - N/A   Clear
11:35 PM 39.0 °F 36.8 °F 36.5 °F 91% 30.01 in 10.0 mi West 3.5 mph - N/A   Clear
11:55 PM 38.5 °F 34.1 °F 36.5 °F 93% 30.01 in 10.0 mi WSW 5.8 mph - N/A   Clear